Champaign, IL

11:24 AM CDT on October 19, 2019 (GMT -0500)
Univ Of Illinois-Willard

Weather History for KCMI - May, 2019

Change the Weather History Date:

Wednesday, May 22, 2019

  Actual Average Record
Temperature  
Mean Temperature 69 °F -  
Max Temperature 81 °F - 91 °F (2011)
Min Temperature 57 °F - 37 °F (1997)
Cooling Degree Days 4    
Month to date cooling degree days 34  
Year to date cooling degree days 37  
Growing Degree Days 18 (Base 50)    
Moisture  
Dew Point 60 °F    
Average Humidity 76    
Maximum Humidity 93    
Minimum Humidity 58    
Precipitation  
Precipitation 0.18 in - 0.81 in (1998)
Month to date precipitation 3.45  
Year to date precipitation 15.59  
Sea Level Pressure  
Sea Level Pressure 29.88 in    
Wind  
Wind Speed 17 mph (SSE)    
Max Wind Speed 23 mph    
Max Gust Speed 32 mph    
Visibility 8 miles    
Events Rain , Thunderstorm    
T = Trace of Precipitation, MM = Missing Value Source: NWS Daily Summary

Daily Weather History Graph

Daily Weather History Graph

Search for Another Location

Airport or City:

Astronomy

May. 22, 2019 Rise Set
Actual Time 5:32 AM CDT 8:07 PM CDT
Civil Twilight 5:00 AM CDT 8:39 PM CDT
Nautical Twilight 4:21 AM CDT 9:18 PM CDT
Astronomical Twilight 3:38 AM CDT 10:02 PM CDT
Moon 11:51 PM CDT (5/22) 8:39 AM CDT (5/22)
Length of Visible Light 15h 38m
Length of Day
14h 35m
Waning Gibbous, 85% of the Moon is Illuminated
May 22
Waning Gibbous
May 26
Last Quarter
Jun 3
New
Jun 10
First Quarter
Jun 17
Full

Hourly Weather History & Observations

Time (CDT) Temp. Heat Index Dew Point Humidity Pressure Visibility Wind Dir Wind Speed Gust Speed Precip Events Conditions
12:05 AM 57.0 °F - 54.0 °F 89% 29.87 in 2.5 mi SE 15.0 mph - 0.08 in Rain , Thunderstorm Heavy Rain
12:21 AM 55.9 °F - 55.0 °F 97% 29.85 in 3.0 mi ESE 12.7 mph - 0.18 in Rain Heavy Rain
12:53 AM 57.0 °F - 55.9 °F 96% 29.84 in 3.0 mi SSE 5.8 mph 23.0 mph 0.29 in Rain Heavy Rain
1:08 AM 57.0 °F - 55.9 °F 96% 29.87 in 5.0 mi South 6.9 mph - 0.03 in Rain Rain
1:22 AM 57.0 °F - 55.9 °F 96% 29.84 in 2.5 mi ESE 10.4 mph - 0.09 in Rain Rain
1:26 AM 57.0 °F - 55.9 °F 96% 29.85 in 3.0 mi ESE 8.1 mph - 0.10 in Rain Rain
1:53 AM 57.0 °F - 55.9 °F 96% 29.84 in 5.0 mi East 11.5 mph - 0.14 in Rain Light Rain
2:53 AM 57.0 °F - 55.0 °F 93% 29.79 in 7.0 mi East 17.3 mph - 0.03 in Rain Light Rain
3:15 AM 57.9 °F - 55.9 °F 93% 29.79 in 8.0 mi ESE 13.8 mph - 0.00 in Rain Light Rain
3:53 AM 59.0 °F - 57.0 °F 93% 29.84 in 6.0 mi SSE 13.8 mph - 0.01 in Rain Light Rain
4:53 AM 60.1 °F - 57.9 °F 93% 29.82 in 10.0 mi SSE 13.8 mph - 0.00 in Rain Light Rain
5:53 AM 60.1 °F - 57.0 °F 90% 29.83 in 10.0 mi SSE 15.0 mph - 0.01 in   Scattered Clouds
6:53 AM 60.1 °F - 57.9 °F 93% 29.86 in 10.0 mi South 11.5 mph - N/A   Clear
7:11 AM 61.0 °F - 59.0 °F 93% 29.87 in 10.0 mi SSE 11.5 mph - N/A   Scattered Clouds
7:19 AM 61.0 °F - 59.0 °F 93% 29.87 in 10.0 mi SSE 13.8 mph - N/A   Mostly Cloudy
7:53 AM 63.0 °F - 60.1 °F 90% 29.87 in 10.0 mi SSE 17.3 mph - N/A   Mostly Cloudy
8:24 AM 64.0 °F - 60.1 °F 87% 29.88 in 10.0 mi South 20.7 mph - N/A   Mostly Cloudy
8:31 AM 64.0 °F - 60.1 °F 87% 29.88 in 10.0 mi SSE 20.7 mph 26.5 mph N/A   Scattered Clouds
8:53 AM 64.9 °F - 60.1 °F 84% 29.88 in 10.0 mi South 20.7 mph - N/A   Partly Cloudy
9:53 AM 68.0 °F - 60.1 °F 76% 29.89 in 10.0 mi South 21.9 mph 28.8 mph N/A   Clear
10:53 AM 72.0 °F - 61.0 °F 68% 29.90 in 10.0 mi South 19.6 mph 28.8 mph N/A   Clear
11:53 AM 73.9 °F - 62.1 °F 66% 29.91 in 10.0 mi SSE 21.9 mph 27.6 mph N/A   Clear
12:53 PM 75.9 °F - 63.0 °F 64% 29.90 in 10.0 mi South 18.4 mph 28.8 mph N/A   Clear
1:53 PM 79.0 °F - 64.0 °F 60% 29.91 in 10.0 mi South 18.4 mph 31.1 mph N/A   Clear
2:53 PM 80.1 °F 81.9 °F 64.9 °F 60% 29.90 in 10.0 mi South 17.3 mph 26.5 mph N/A   Clear
3:53 PM 80.1 °F 81.7 °F 64.0 °F 58% 29.90 in 10.0 mi South 16.1 mph 28.8 mph N/A   Clear
4:53 PM 80.1 °F 81.9 °F 64.9 °F 60% 29.90 in 10.0 mi South 18.4 mph 26.5 mph N/A   Clear
5:53 PM 78.1 °F - 66.0 °F 66% 29.92 in 10.0 mi South 18.4 mph 28.8 mph N/A   Clear
6:53 PM 77.0 °F - 64.9 °F 66% 29.91 in 10.0 mi SSE 20.7 mph - N/A   Clear
7:53 PM 73.0 °F - 64.0 °F 73% 29.92 in 10.0 mi SSE 13.8 mph - N/A   Clear
8:53 PM 71.1 °F - 64.0 °F 78% 29.91 in 10.0 mi SE 12.7 mph - N/A   Clear
9:53 PM 71.1 °F - 64.9 °F 81% 29.91 in 10.0 mi SSE 13.8 mph - N/A   Clear
10:53 PM 71.1 °F - 64.9 °F 81% 29.93 in 10.0 mi SSE 16.1 mph - N/A   Clear
11:53 PM 68.0 °F - 66.0 °F 93% 29.93 in 10.0 mi SSE 15.0 mph - N/A   Clear